Regional Weather Roundup
Issued by NWS Upton, NY

Current Version | Previous Version | Graphics & Text | Print | Product List | Glossary Off
Versions: 1 2 3 4 5 6 7 8 9 10 11 12 13 14 15 16 17 18 19 20 21 22 23 24 25 26 27 28 29 30 31 32 33 34 35 36 37 38 39 40 41 42 43 44 45 46 47 48 49 50

000
ASUS41 KOKX 260108
RWROKX

REGIONAL WEATHER ROUNDUP
NATIONAL WEATHER SERVICE NEW YORK NY
900 PM EDT SAT MAR 25 2017

NOTE: "FAIR" INDICATES FEW OR NO CLOUDS BELOW 12,000 FEET WITH NO
SIGNIFICANT WEATHER AND/OR OBSTRUCTIONS TO VISIBILITY.

NYZ071-072-176-178-NJZ106-104-260200-
NEW YORK CITY METRO AREA

CITY           SKY/WX    TMP DP  RH WIND       PRES   REMARKS
Central Park   CLOUDY    44  40  85 VRB6      30.38R
Wall St Helipt CLOUDY    46  40  79 NE17      30.37R
LaGuardia APRT CLOUDY    45  38  76 NE10      30.36R
Kennedy INTL   CLOUDY    46  40  79 NE9       30.38R
Breezy Point     N/A     41 N/A N/A E9          N/A
Newark/Liberty CLOUDY    45  39  79 N13       30.36R
Teterboro      CLOUDY    44  39  82 NE5       30.36R
$$

NYZ177-179-078>081-260200-
LONG ISLAND NEW YORK

CITY           SKY/WX    TMP DP  RH WIND       PRES   REMARKS
Jones Beach      N/A     43 N/A N/A E12         N/A
Matinecock PT    N/A     41 N/A N/A E10         N/A
Farmingdale    CLOUDY    43  38  82 NE8       30.37R
MacArthur/ISP  CLOUDY    43  39  86 E6        30.35S
Shirley        CLOUDY    43  38  82 CALM      30.36R
Westhampton    CLOUDY    42  36  79 NE6       30.38R
East Hampton   CLOUDY    40  36  84 E5        30.37R
Montauk          N/A     41  38  89 NE6       30.39R
$$

NYZ052-065-067-260200-
HUDSON VALLEY

CITY           SKY/WX    TMP DP  RH WIND       PRES   REMARKS
White Plains   CLOUDY    43  39  86 N3        30.35R
Newburgh       MOCLDY    36  36 100 NE12      30.38R WCI  27
Montgomery     CLOUDY    37  34  89 NE9       30.37R WCI  30
Poughkeepsie   CLOUDY    35  33  92 NE7       30.38R WCI  29
Albany         CLOUDY    37  29  72 N6        30.42R WCI  32
$$

NJZ001-105-106-008-010-013-015-019>022-104-260200-
NEW JERSEY

CITY           SKY/WX    TMP DP  RH WIND       PRES   REMARKS
Newark/Liberty CLOUDY    45  39  79 N13       30.36R
Teterboro      CLOUDY    44  39  82 NE5       30.36R
Caldwell       CLOUDY    43  38  82 CALM      30.37R
Somerville     CLOUDY    48  39  71 E9        30.33R
Linden         CLOUDY    46  39  78 NE12      30.36R
Sussex         CLOUDY    38  36  92 NE8       30.36R WCI  32
Andover          N/A     39  36  89 N5        30.34R
Trenton        MOCLDY    47  40  76 E9        30.31R
Millville      MOCLDY    51  43  74 E13G22    30.27R
Atlantic City  CLOUDY    47  41  80 E14G22    30.29R
Wrightstown    PTCLDY    44  40  87 E10       30.27S
Toms River     CLOUDY    44  41  89 SE6       30.31S
Belmar         CLOUDY    43  39  86 NE9       30.34R
$$

PAZ047>061-062-071-260200-
EASTERN PENNSYLVANIA

CITY           SKY/WX    TMP DP  RH WIND       PRES   REMARKS
Philadelphia   MOCLDY    48  41  76 E10       30.30R
Allentown      CLOUDY    49  38  65 NE17      30.31R
Scranton       CLOUDY    43  42  97 NE5       30.31R
$$

CTZ002-004>006-009-010-012-RIZ004-006-007-MAZ004-011-015-260200-
SOUTHERN NEW ENGLAND
 IN CT

CITY           SKY/WX    TMP DP  RH WIND       PRES   REMARKS
Bradley INTL   MOCLDY    36  33  89 N3        30.39R
Hartford       CLOUDY    37  35  92 N6        30.40R WCI  32
Danbury        CLOUDY    40  39  97 NE6       30.37R
Wtrbury/Oxford CLOUDY    37  30  75 NE5       30.37R WCI  34
Bridgeport     CLOUDY    43  36  76 NE9       30.38R
Meriden        PTCLDY    39  34  82 N3        30.39R
New Haven      CLOUDY    40  37  89 N7        30.38R
Chester        NOT AVBL
Groton         MOCLDY    41  36  82 NE6       30.37R
Wilimantic     CLEAR     38  36  92 CALM      30.39R

 IN RI

CITY           SKY/WX    TMP DP  RH WIND       PRES   REMARKS
Providence     CLOUDY    38  34  85 N6        30.38R WCI  33
Block Island   CLOUDY    39  37  92 NE6       30.38R WCI  35
Westerly       CLOUDY    42  37  82 VRB3      30.39R
 IN MA

CITY           SKY/WX    TMP DP  RH WIND       PRES   REMARKS
Boston         PTCLDY    37  34  89 N5        30.39R WCI  33
Worcester      MOCLDY    34  30  85 N6        30.34R WCI  29
Westfield      CLEAR     34  32  92 CALM      30.38R
Provincetown   PTCLDY    36  34  92 N6        30.39R WCI  31
Nantucket      CLOUDY    38  33  82 N9        30.37R WCI  31
$$

ANZ330-335-338-340-345-350-353-355-260200-
COASTAL MARINE OBSERVATIONS


STATION/POSITION TIME  SKY/WX   TEMP    WIND        PRES    VSBY  WAVE
                                AIR SEA DIR/SP/G                  HT/PER
                 (UTC)          (F)     (DEG/KT/KT) (MB)    (MI)  (FT/S)
NY HARB ENTRANCE 2350            43 42  110/ 12/ 16 1025.5          4/ 7
20 S FIRE ISLAND 0050            42 40   60/ 12/ 14 1027.4          5/ 8
GREAT SOUTH BAY  NOT AVBL
23 SSW MONTAUK P 0050            40 43              1028.7          5/ 8
15 E BARNEGAT LI 0030               43                N/A           5/ 7
HUDSON CANYON    0050            43 45   80/ 19/ 23 1025.8          5/ 7
KINGS POINT      0024            44 39              1027.4
EXECUTION ROCKS  NOT AVBL
CENTRAL LI SOUND 0030            40      30/  6/  6   N/A           1
EASTERN LI SOUND NOT AVBL
ROBBINS REEF     0024            45     350/  8/ 10 1027.9
$$


>>>>>>>>>>>>>>>>>>>>>>>>>>>> KEY <<<<<<<<<<<<<<<<<<<<<<<<<<<
>                                                          <
>     SKY/WX - Sky Condition/Present Weather               <
>     TMP    - Temperature in Fahrenheit                   <
>     DP     - Dew Point in Fahrenheit                     <
>     RH     - Relative Humidity in Percent                <
>     WIND   - Direction (from) and Speed in MPH           <
>     PRES   - Mean Sea Level Pressure (inches of Hg)      <
>     WCI    - Wind Chill Index                            <
>     VSB    - VISIBILITY IN MILES                         <
>     HX     - HEAT INDEX                                  <
>     TC     - TEMPERATURE IN CELSIUS                      <
>     VRB    - VARIABLE WIND DIRECTION                     <
>                                                          <
>>>>>>>>>>>>>>>>>>>>>>>>>>>> KEY <<<<<<<<<<<<<<<<<<<<<<<<<<<



USA.gov is the U.S. government's official web portal to all federal, state and local government web resources and services.